QPF
0.00 0.00 0.00 0.00 0.00 0.01 0.01 0.01 0.00 0.00 0.00 0.02 0.03 0.03 0.05 0.04 0.04 0.04 0.07 0.08 0.04 0.01 0.00 0.00 0.00 0.00 0.00 0.00 0.00 0.02 0.01 0.02 0.03 0.04 0.03 0.01 0.00 0.00 0.00 0.00 0.00 0.00 0.00 0.00 0.00 0.00 0.00 0.00 0.00 0.00 0.00 0.00 0.00 0.00
0.00 0.00 0.00 0.00 0.00 0.00 0.00 0.01 0.00 0.00 0.00 0.00 0.01 0.00 0.00 0.00 0.01 0.03 0.05 0.09 0.08 0.02 0.01 0.01 0.00 0.00 0.00 0.00 0.00 0.00 0.00 0.00 0.02 0.05 0.08 0.04 0.03 0.05 0.05 0.01 0.00 0.00 0.00 0.00 0.00 0.00 0.00 0.00 0.00 0.00 0.00 0.00 0.00 0.00
0.00 0.00 0.00 0.00 0.00 0.00 0.01 0.00 0.00 0.00 0.00 0.00 0.00 0.00 0.00 0.00 0.01 0.01 0.03 0.05 0.04 0.02 0.00 0.00 0.00 0.00 0.00 0.00 0.00 0.00 0.00 0.00 0.01 0.01 0.01 0.02 0.03 0.07 0.07 0.04 0.06 0.02 0.01 0.00 0.00 0.00 0.00 0.00 0.00 0.00 0.00 0.00 0.00 0.00
0.00 0.00 0.00 0.00 0.00 0.01 0.01 0.00 0.00 0.00 0.00 0.00 0.00 0.00 0.00 0.00 0.01 0.01 0.05 0.06 0.03 0.02 0.01 0.00 0.00 0.00 0.00 0.00 0.00 0.00 0.00 0.03 0.03 0.00 0.00 0.04 0.03 0.07 0.08 0.06 0.04 0.03 0.03 0.01 0.02 0.00 0.00 0.00 0.00 0.00 0.00 0.00 0.00 0.00
0.00 0.00 0.00 0.00 0.00 0.00 0.00 0.00 0.00 0.00 0.00 0.00 0.00 0.00 0.00 0.00 0.00 0.00 0.02 0.05 0.05 0.02 0.01 0.00 0.00 0.00 0.00 0.00 0.00 0.00 0.00 0.01 0.03 0.00 0.01 0.03 0.04 0.02 0.06 0.06 0.01 0.01 0.01 0.05 0.11 0.04 0.01 0.00 0.00 0.00 0.00 0.00 0.00 0.00
0.00 0.00 0.00 0.00 0.00 0.00 0.00 0.00 0.00 0.00 0.00 0.00 0.00 0.00 0.00 0.00 0.00 0.01 0.04 0.04 0.03 0.04 0.02 0.01 0.00 0.00 0.01 0.01 0.00 0.00 0.00 0.00 0.00 0.00 0.00 0.01 0.03 0.00 0.03 0.04 0.00 0.00 0.01 0.02 0.03 0.04 0.01 0.00 0.00 0.00 0.00 0.00 0.00 0.00
0.00 0.00 0.00 0.00 0.00 0.00 0.00 0.00 0.00 0.00 0.00 0.00 0.00 0.00 0.00 0.00 0.00 0.02 0.03 0.00 0.00 0.02 0.01 0.01 0.01 0.01 0.03 0.02 0.00 0.00 0.00 0.00 0.00 0.01 0.01 0.02 0.04 0.01 0.02 0.00 0.00 0.02 0.06 0.06 0.07 0.03 0.00 0.00 0.00 0.00 0.00 0.00 0.00 0.00
0.00 0.00 0.00 0.00 0.00 0.00 0.00 0.00 0.00 0.00 0.00 0.00 0.00 0.00 0.00 0.00 0.00 0.00 0.00 0.00 0.00 0.01 0.00 0.00 0.01 0.02 0.04 0.05 0.01 0.00 0.01 0.00 0.00 0.00 0.02 0.03 0.03 0.02 0.00 0.00 0.01 0.05 0.06 0.05 0.03 0.01 0.00 0.00 0.00 0.00 0.00 0.00 0.00 0.00
0.00 0.00 0.00 0.00 0.00 0.00 0.00 0.00 0.00 0.00 0.00 0.00 0.00 0.00 0.00 0.00 0.01 0.02 0.00 0.00 0.00 0.01 0.00 0.00 0.00 0.01 0.01 0.03 0.03 0.02 0.02 0.02 0.01 0.00 0.02 0.02 0.01 0.01 0.02 0.02 0.01 0.02 0.05 0.04 0.02 0.02 0.01 0.00 0.00 0.00 0.00 0.00 0.00 0.00
0.00 0.00 0.00 0.00 0.00 0.00 0.00 0.00 0.00 0.00 0.00 0.00 0.00 0.00 0.03 0.04 0.01 0.00 0.02 0.01 0.01 0.01 0.00 0.00 0.00 0.02 0.01 0.02 0.01 0.01 0.01 0.02 0.01 0.03 0.01 0.00 0.00 0.00 0.03 0.02 0.01 0.01 0.02 0.04 0.03 0.02 0.01 0.00 0.00 0.00 0.00 0.00 0.00 0.00
0.00 0.00 0.00 0.00 0.00 0.00 0.00 0.00 0.00 0.00 0.00 0.00 0.00 0.00 0.01 0.00 0.00 0.01 0.02 0.01 0.00 0.00 0.00 0.00 0.01 0.05 0.01 0.03 0.00 0.01 0.02 0.03 0.01 0.01 0.01 0.00 0.00 0.00 0.03 0.03 0.01 0.01 0.01 0.01 0.01 0.00 0.00 0.00 0.00 0.01 0.00 0.00 0.00 0.00
0.00 0.00 0.00 0.00 0.00 0.00 0.00 0.00 0.00 0.00 0.00 0.00 0.00 0.00 0.00 0.01 0.02 0.01 0.01 0.01 0.01 0.02 0.02 0.05 0.05 0.05 0.02 0.01 0.01 0.02 0.02 0.02 0.01 0.03 0.01 0.00 0.00 0.01 0.02 0.05 0.03 0.00 0.00 0.00 0.00 0.00 0.00 0.00 0.01 0.01 0.00 0.00 0.00 0.00
0.00 0.00 0.00 0.00 0.00 0.00 0.00 0.00 0.00 0.00 0.00 0.00 0.00 0.01 0.00 0.01 0.01 0.00 0.00 0.01 0.01 0.01 0.00 0.02 0.03 0.03 0.02 0.01 0.02 0.03 0.02 0.03 0.03 0.01 0.00 0.01 0.01 0.01 0.00 0.06 0.05 0.02 0.05 0.04 0.02 0.01 0.01 0.02 0.03 0.04 0.01 0.01 0.01 0.00
0.00 0.00 0.00 0.00 0.00 0.00 0.00 0.00 0.00 0.00 0.00 0.00 0.00 0.01 0.02 0.03 0.01 0.01 0.02 0.02 0.02 0.01 0.00 0.01 0.04 0.02 0.02 0.03 0.04 0.03 0.03 0.03 0.01 0.00 0.00 0.00 0.00 0.01 0.01 0.06 0.02 0.03 0.03 0.00 0.00 0.00 0.00 0.00 0.01 0.00 0.00 0.00 0.00 0.00
0.00 0.00 0.00 0.00 0.00 0.00 0.00 0.00 0.00 0.00 0.00 0.00 0.02 0.04 0.04 0.05 0.02 0.01 0.01 0.02 0.02 0.01 0.00 0.01 0.01 0.00 0.00 0.03 0.06 0.06 0.03 0.01 0.01 0.00 0.00 0.00 0.01 0.05 0.07 0.03 0.00 0.00 0.00 0.00 0.00 0.00 0.00 0.00 0.00 0.00 0.00 0.00 0.00 0.00
0.00 0.00 0.00 0.00 0.00 0.00 0.00 0.00 0.00 0.00 0.01 0.02 0.04 0.03 0.01 0.02 0.01 0.00 0.00 0.00 0.00 0.00 0.00 0.00 0.01 0.00 0.01 0.02 0.01 0.01 0.01 0.00 0.01 0.03 0.04 0.04 0.09 0.12 0.06 0.01 0.00 0.00 0.00 0.00 0.00 0.00 0.00 0.00 0.00 0.00 0.00 0.00 0.00 0.00
0.00 0.00 0.00 0.00 0.00 0.00 0.00 0.00 0.00 0.00 0.00 0.00 0.00 0.00 0.01 0.03 0.03 0.00 0.00 0.00 0.00 0.00 0.00 0.00 0.03 0.05 0.03 0.00 0.01 0.02 0.01 0.01 0.01 0.06 0.11 0.12 0.11 0.13 0.11 0.05 0.00 0.00 0.01 0.00 0.00 0.00 0.00 0.00 0.00 0.00 0.00 0.00 0.00 0.00
0.00 0.00 0.00 0.00 0.00 0.00 0.00 0.00 0.00 0.00 0.00 0.00 0.00 0.00 0.00 0.02 0.01 0.01 0.00 0.00 0.00 0.00 0.00 0.00 0.01 0.01 0.01 0.02 0.04 0.07 0.08 0.10 0.13 0.14 0.12 0.09 0.08 0.10 0.05 0.02 0.00 0.00 0.00 0.00 0.00 0.00 0.00 0.00 0.00 0.00 0.00 0.00 0.00 0.00
0.00 0.00 0.00 0.00 0.00 0.00 0.00 0.00 0.00 0.00 0.00 0.00 0.00 0.00 0.00 0.01 0.00 0.01 0.00 0.00 0.00 0.00 0.00 0.00 0.01 0.05 0.09 0.11 0.10 0.10 0.13 0.14 0.11 0.11 0.11 0.08 0.04 0.03 0.03 0.01 0.00 0.00 0.00 0.00 0.00 0.00 0.00 0.00 0.00 0.00 0.00 0.00 0.00 0.00
0.00 0.00 0.00 0.00 0.00 0.00 0.00 0.00 0.00 0.00 0.00 0.00 0.00 0.01 0.02 0.02 0.01 0.00 0.00 0.00 0.00 0.00 0.00 0.05 0.11 0.15 0.12 0.13 0.11 0.10 0.09 0.10 0.10 0.10 0.09 0.04 0.01 0.00 0.00 0.00 0.00 0.00 0.00 0.00 0.00 0.00 0.00 0.00 0.00 0.00 0.00 0.00 0.00 0.00
0.00 0.00 0.00 0.00 0.00 0.00 0.00 0.00 0.00 0.00 0.00 0.00 0.00 0.01 0.03 0.03 0.01 0.01 0.00 0.00 0.00 0.01 0.05 0.10 0.11 0.11 0.10 0.08 0.08 0.06 0.05 0.03 0.03 0.03 0.03 0.04 0.03 0.00 0.00 0.00 0.00 0.00 0.00 0.00 0.00 0.00 0.00 0.00 0.00 0.00 0.00 0.00 0.00 0.00
0.00 0.00 0.00 0.00 0.00 0.00 0.00 0.00 0.00 0.00 0.00 0.01 0.00 0.00 0.02 0.02 0.01 0.00 0.00 0.00 0.02 0.05 0.06 0.03 0.00 0.00 0.00 0.00 0.00 0.00 0.00 0.00 0.01 0.01 0.01 0.01 0.00 0.00 0.00 0.00 0.00 0.00 0.00 0.00 0.00 0.00 0.00 0.00 0.00 0.00 0.00 0.00 0.00 0.00
0.00 0.00 0.00 0.00 0.00 0.00 0.00 0.00 0.00 0.00 0.00 0.00 0.02 0.03 0.02 0.04 0.03 0.01 0.02 0.06 0.08 0.09 0.05 0.01 0.00 0.00 0.00 0.00 0.00 0.00 0.00 0.00 0.00 0.00 0.00 0.00 0.00 0.00 0.00 0.00 0.00 0.00 0.00 0.00 0.00 0.00 0.00 0.00 0.00 0.00 0.00 0.00 0.00 0.00
0.00 0.00 0.00 0.00 0.00 0.00 0.00 0.00 0.00 0.00 0.00 0.01 0.06 0.08 0.07 0.05 0.02 0.01 0.03 0.04 0.04 0.01 0.00 0.00 0.00 0.00 0.00 0.00 0.00 0.00 0.00 0.00 0.00 0.00 0.00 0.00 0.00 0.00 0.00 0.00 0.00 0.00 0.00 0.00 0.00 0.00 0.00 0.00 0.00 0.00 0.00 0.00 0.00 0.00
0.00 0.00 0.00 0.00 0.00 0.01 0.00 0.01 0.00 0.00 0.03 0.03 0.07 0.11 0.10 0.09 0.04 0.01 0.01 0.00 0.00 0.00 0.00 0.00 0.00 0.00 0.00 0.00 0.00 0.00 0.00 0.00 0.00 0.00 0.00 0.00 0.00 0.00 0.00 0.00 0.00 0.00 0.00 0.00 0.00 0.00 0.00 0.00 0.00 0.00 0.00 0.00 0.00 0.00
0.00 0.00 0.00 0.00 0.00 0.00 0.01 0.02 0.02 0.02 0.03 0.03 0.02 0.04 0.04 0.09 0.03 0.01 0.01 0.00 0.00 0.00 0.00 0.00 0.00 0.00 0.00 0.00 0.00 0.00 0.00 0.00 0.00 0.00 0.00 0.00 0.00 0.00 0.00 0.00 0.00 0.00 0.00 0.00 0.00 0.00 0.00 0.00 0.00 0.00 0.00 0.00 0.00 0.00
0.02 0.07 0.01 0.00 0.00 0.01 0.04 0.02 0.03 0.04 0.07 0.07 0.06 0.04 0.03 0.03 0.00 0.00 0.00 0.00 0.00 0.00 0.00 0.00 0.00 0.00 0.00 0.00 0.00 0.00 0.00 0.00 0.00 0.00 0.00 0.00 0.00 0.00 0.00 0.00 0.00 0.00 0.00 0.00 0.00 0.00 0.00 0.00 0.00 0.00 0.00 0.00 0.00 0.00
0.02 0.01 0.08 0.03 0.00 0.01 0.04 0.01 0.01 0.01 0.01 0.05 0.03 0.02 0.00 0.00 0.00 0.00 0.00 0.00 0.00 0.00 0.00 0.00 0.00 0.00 0.00 0.00 0.00 0.00 0.00 0.00 0.00 0.00 0.00 0.00 0.00 0.00 0.00 0.00 0.00 0.00 0.00 0.00 0.00 0.00 0.00 0.00 0.00 0.00 0.00 0.00 0.00 0.00
0.05 0.01 0.04 0.11 0.03 0.00 0.00 0.00 0.00 0.00 0.00 0.00 0.00 0.00 0.00 0.00 0.00 0.00 0.00 0.00 0.00 0.00 0.00 0.00 0.00 0.00 0.00 0.00 0.00 0.00 0.00 0.00 0.00 0.00 0.00 0.00 0.00 0.00 0.00 0.00 0.00 0.00 0.00 0.00 0.00 0.00 0.00 0.00 0.00 0.00 0.00 0.00 0.00 0.00
0.00 0.01 0.04 0.02 0.01 0.00 0.00 0.00 0.00 0.00 0.00 0.00 0.00 0.00 0.00 0.00 0.00 0.00 0.00 0.00 0.00 0.00 0.00 0.00 0.00 0.00 0.00 0.00 0.00 0.00 0.00 0.00 0.00 0.00 0.00 0.00 0.00 0.00 0.00 0.00 0.00 0.00 0.00 0.00 0.00 0.00 0.00 0.00 0.00 0.00 0.00 0.00 0.00 0.00
0.00 0.00 0.00 0.00 0.00 0.00 0.00 0.00 0.00 0.00 0.00 0.00 0.00 0.00 0.00 0.00 0.03 0.00 0.00 0.00 0.00 0.00 0.00 0.00 0.00 0.00 0.00 0.00 0.00 0.00 0.00 0.00 0.00 0.00 0.00 0.00 0.00 0.00 0.00 0.00 0.00 0.00 0.00 0.00 0.00 0.00 0.00 0.00 0.00 0.00 0.00 0.00 0.00 0.00
0.00 0.00 0.00 0.00 0.00 0.00 0.00 0.00 0.00 0.01 0.00 0.00 0.00 0.00 0.03 0.07 0.08 0.04 0.00 0.00 0.00 0.00 0.00 0.00 0.00 0.00 0.00 0.00 0.00 0.00 0.00 0.00 0.00 0.00 0.00 0.00 0.00 0.00 0.00 0.00 0.00 0.00 0.00 0.00 0.00 0.00 0.00 0.00 0.00 0.00 0.00 0.00 0.00 0.00
0.00 0.00 0.00 0.00 0.00 0.00 0.00 0.01 0.02 0.02 0.00 0.03 0.02 0.01 0.01 0.01 0.00 0.00 0.00 0.00 0.00 0.00 0.00 0.00 0.00 0.00 0.00 0.00 0.00 0.00 0.00 0.00 0.00 0.00 0.00 0.00 0.00 0.00 0.00 0.00 0.00 0.00 0.00 0.00 0.00 0.00 0.00 0.00 0.00 0.00 0.00 0.00 0.00 0.00
MSLP
1020.64 1020.00 1019.29 1018.59 1017.92 1017.23 1016.56 1015.92 1015.28 1014.83 1014.46 1014.04 1013.65 1013.40 1013.15 1012.96 1012.99 1013.12 1012.33 1012.49 1012.88 1012.50 1010.64 1009.61 1008.45 1007.57 1006.86 1006.07 1005.59 1006.11 1005.13 1003.15 1001.90 1002.00 1002.31 1001.70 1000.16 996.01 993.85 991.60 990.04 989.17 988.76 988.20 988.22 987.52 986.99 986.05 986.14 986.27 987.26 987.54 987.60 987.74
1020.31 1019.71 1019.12 1018.51 1017.91 1017.16 1016.47 1015.84 1015.19 1014.73 1014.30 1013.85 1013.46 1013.22 1013.04 1012.89 1012.72 1012.61 1012.25 1011.79 1012.04 1011.80 1010.44 1009.23 1008.13 1007.12 1006.15 1005.57 1005.74 1005.01 1004.87 1005.25 1003.90 1003.41 1002.69 1001.72 1000.06 998.53 996.17 993.95 992.82 992.07 990.55 989.83 988.74 988.09 987.99 988.77 988.85 987.95 987.69 987.98 988.17 988.47
1020.07 1019.49 1018.96 1018.39 1017.82 1017.17 1016.44 1015.82 1015.29 1014.78 1014.36 1013.98 1013.59 1013.26 1012.96 1012.70 1012.49 1012.45 1011.98 1012.06 1011.92 1011.51 1009.76 1007.36 1005.51 1004.70 1004.57 1004.19 1004.66 1004.51 1003.95 1003.96 1003.99 1004.78 1004.60 1002.80 1001.21 999.98 998.17 996.35 994.51 993.43 993.64 992.28 990.43 989.23 988.16 988.59 988.90 989.15 988.67 988.51 988.71 988.58
1020.00 1019.40 1018.85 1018.28 1017.72 1017.12 1016.51 1015.91 1015.36 1014.86 1014.42 1013.93 1013.41 1013.04 1012.73 1012.48 1012.31 1012.10 1011.84 1011.65 1011.84 1011.31 1009.68 1005.71 1003.51 1002.99 1002.44 1002.07 1002.64 1003.05 1003.36 1003.45 1003.80 1004.36 1004.44 1003.27 1001.71 1000.60 999.66 998.98 998.56 997.68 996.69 995.15 992.45 990.60 990.18 989.79 989.42 989.46 989.43 989.21 989.49 989.87
1019.95 1019.33 1018.72 1018.19 1017.61 1017.02 1016.41 1015.82 1015.21 1014.69 1014.21 1013.67 1013.20 1012.85 1012.63 1012.30 1012.06 1011.77 1010.92 1010.67 1011.04 1011.49 1009.50 1006.36 1004.75 1002.12 1001.16 1001.14 1001.00 1001.65 1002.37 1002.91 1003.71 1004.33 1004.94 1003.69 1002.31 1001.81 1000.34 1000.31 999.36 999.14 998.75 997.68 995.33 994.40 994.67 991.15 990.87 990.41 990.72 990.61 990.98 991.43
1019.81 1019.15 1018.57 1018.04 1017.46 1016.84 1016.21 1015.54 1015.05 1014.52 1013.97 1013.41 1012.91 1012.69 1012.45 1012.20 1011.89 1011.18 1010.58 1010.43 1010.51 1010.95 1010.08 1007.48 1003.10 1001.92 1001.21 1001.92 1000.80 1001.03 1001.78 1002.38 1002.78 1004.33 1004.94 1004.15 1002.79 1002.59 1001.88 1000.64 1000.21 999.95 999.67 999.13 998.38 996.64 995.46 992.60 991.99 991.89 992.12 992.08 992.19 992.49
1019.75 1019.12 1018.54 1017.93 1017.34 1016.71 1015.97 1015.39 1014.72 1014.05 1013.38 1012.88 1012.43 1012.18 1011.92 1011.93 1011.60 1011.05 1010.66 1010.52 1010.62 1010.61 1010.23 1008.22 1005.24 1002.78 1001.88 1000.70 1000.25 1000.86 1001.20 1001.68 1002.41 1003.81 1004.31 1003.85 1003.24 1002.81 1001.33 1000.43 1000.49 999.53 999.32 999.03 998.76 998.24 999.13 996.05 994.87 994.46 993.74 993.83 994.02 994.14
1019.65 1019.06 1018.46 1017.79 1017.15 1016.41 1015.75 1014.94 1014.23 1013.44 1012.70 1012.15 1011.66 1011.28 1011.07 1011.19 1010.99 1010.32 1009.66 1009.91 1010.15 1010.47 1010.56 1009.27 1006.74 1004.40 1002.53 1001.20 1000.66 1001.17 1001.79 1002.41 1002.57 1002.86 1003.63 1003.40 1002.65 1001.95 1001.38 1001.10 1000.91 1000.96 999.94 998.84 999.48 999.14 999.00 999.11 997.82 996.41 996.29 995.85 995.96 995.96
1019.49 1018.85 1018.22 1017.57 1016.89 1015.99 1015.38 1014.50 1013.70 1012.80 1011.76 1011.09 1010.96 1010.58 1010.39 1010.39 1009.56 1009.18 1009.40 1009.79 1010.13 1010.79 1010.13 1009.40 1007.51 1005.31 1003.30 1002.29 1001.51 1001.86 1002.19 1002.18 1002.46 1002.93 1003.34 1003.38 1002.71 1002.27 1002.00 1001.56 1001.79 1001.38 1000.66 1000.11 999.54 999.06 999.37 999.31 999.12 998.78 998.19 998.39 998.47 998.29
1019.15 1018.57 1017.91 1017.14 1016.45 1015.58 1014.74 1013.95 1013.15 1011.99 1010.87 1010.18 1009.73 1009.33 1008.71 1008.34 1008.92 1009.23 1009.57 1009.77 1010.09 1010.07 1009.91 1008.60 1007.75 1005.41 1003.84 1002.34 1001.47 1001.75 1002.09 1002.26 1002.70 1003.22 1003.51 1003.65 1003.31 1002.72 1002.13 1002.24 1002.41 1002.30 1001.59 1000.70 1000.03 999.77 999.43 999.06 999.08 999.21 1000.19 1000.05 1000.04 999.44
1018.95 1018.23 1017.49 1016.64 1015.83 1015.15 1014.20 1013.34 1012.58 1011.60 1009.85 1009.01 1008.98 1007.85 1007.62 1007.91 1008.29 1008.47 1008.19 1008.39 1008.28 1008.11 1007.58 1006.66 1005.50 1004.03 1003.77 1002.97 1001.73 1001.79 1001.81 1002.16 1002.76 1003.17 1003.62 1004.30 1004.08 1003.75 1003.09 1002.87 1002.85 1002.48 1002.01 1001.64 1001.03 1000.51 1000.30 1000.67 1000.67 1000.57 1000.57 1000.71 1000.78 1001.20
1018.58 1017.97 1017.06 1016.28 1015.48 1014.68 1013.69 1012.83 1012.28 1011.38 1010.29 1010.87 1010.72 1009.11 1008.15 1007.45 1007.52 1007.74 1007.43 1006.91 1006.32 1005.57 1004.67 1003.93 1003.66 1002.88 1003.24 1002.93 1002.58 1002.28 1002.14 1002.44 1002.63 1003.00 1003.96 1005.17 1004.90 1003.94 1003.79 1003.62 1003.21 1002.63 1002.20 1001.80 1001.42 1001.12 1001.10 1001.20 1000.90 1001.08 1000.95 1001.17 1000.52 1001.26
1018.15 1017.37 1016.68 1015.83 1015.05 1014.19 1013.37 1012.58 1011.82 1011.59 1010.67 1009.81 1009.70 1008.15 1007.13 1007.27 1007.04 1006.96 1007.11 1006.42 1005.23 1004.13 1002.82 1002.31 1002.24 1002.64 1002.41 1002.44 1002.20 1001.87 1002.06 1002.34 1002.89 1003.98 1005.69 1005.92 1005.27 1004.65 1003.80 1002.85 1002.34 1002.30 1002.30 1001.49 1001.13 1001.10 1001.19 1001.14 1001.28 1001.34 1001.25 1001.46 1000.72 1000.61
1017.71 1016.74 1016.02 1015.28 1014.60 1013.79 1012.75 1012.15 1011.51 1010.99 1010.49 1009.02 1008.38 1007.83 1007.08 1006.43 1006.06 1005.85 1005.94 1005.20 1003.57 1002.43 1001.21 1000.40 1001.08 1001.18 1001.05 1001.31 1001.42 1001.57 1002.27 1002.79 1004.24 1005.50 1006.72 1006.33 1005.37 1004.38 1003.29 1001.69 1001.30 1001.30 1001.33 1001.01 1000.80 1000.54 1000.63 1000.64 1001.01 1001.19 1001.33 1001.34 1001.16 1001.28
1017.16 1016.01 1015.23 1014.58 1014.01 1013.05 1012.26 1011.43 1011.12 1010.70 1009.43 1008.34 1007.94 1007.98 1007.29 1006.08 1004.48 1003.62 1003.75 1003.56 1002.48 1002.18 1000.81 999.88 999.71 1000.08 1000.07 1000.25 1000.98 1001.65 1002.78 1004.58 1005.97 1006.64 1006.57 1005.95 1005.35 1004.71 1003.27 1002.36 1001.87 1001.69 1001.52 1001.41 1001.31 1001.39 1001.48 1001.36 1001.32 1001.26 1001.40 1001.53 1001.72 1001.63
1016.78 1015.25 1014.58 1013.78 1013.35 1012.58 1011.42 1010.51 1010.00 1008.75 1008.14 1007.79 1007.45 1007.21 1006.69 1006.12 1004.52 1003.55 1002.29 1001.14 999.80 1000.19 999.93 999.79 1000.23 1000.71 1001.37 1002.67 1003.37 1004.36 1005.11 1006.12 1006.60 1006.43 1006.19 1005.74 1004.93 1004.08 1003.30 1002.79 1002.52 1002.22 1001.91 1001.74 1001.70 1001.44 1001.45 1001.39 1001.48 1001.50 1001.63 1001.87 1002.02 1002.07
1016.44 1014.50 1014.03 1013.76 1013.11 1012.10 1010.56 1010.41 1007.99 1007.35 1007.29 1007.61 1007.50 1007.56 1006.97 1006.28 1005.30 1003.80 1002.79 1001.32 1000.57 1000.12 1000.17 1000.72 1002.27 1002.91 1003.37 1004.91 1005.74 1006.30 1007.05 1007.36 1006.83 1006.54 1006.20 1005.73 1005.29 1004.52 1003.89 1003.29 1003.06 1002.83 1002.82 1002.83 1002.50 1002.12 1002.29 1002.24 1001.91 1002.05 1002.19 1002.23 1002.39 1002.41
1015.41 1014.26 1014.38 1014.19 1013.64 1011.71 1009.76 1009.37 1008.31 1007.55 1007.60 1007.51 1007.54 1007.66 1007.45 1006.88 1006.23 1004.79 1003.23 1002.34 1001.75 1001.50 1001.76 1002.45 1003.82 1005.03 1005.61 1006.00 1006.67 1007.22 1007.18 1007.02 1006.71 1006.22 1005.89 1005.50 1005.00 1004.48 1004.05 1003.69 1003.52 1003.27 1003.31 1003.24 1002.99 1002.72 1003.20 1003.02 1002.53 1002.50 1002.37 1002.41 1002.39 1002.58
1015.64 1015.28 1014.82 1014.07 1014.11 1013.41 1010.21 1009.61 1009.33 1008.12 1007.96 1007.93 1008.37 1008.34 1007.58 1007.08 1006.77 1005.52 1004.91 1003.76 1003.59 1003.48 1003.52 1004.29 1005.67 1006.79 1007.36 1007.65 1007.54 1007.25 1007.11 1007.11 1006.90 1006.56 1005.93 1005.64 1005.07 1004.30 1003.92 1003.87 1003.92 1003.87 1003.72 1003.54 1003.49 1003.14 1003.38 1003.44 1003.12 1003.03 1003.01 1002.95 1002.92 1003.14
1015.11 1014.79 1014.36 1013.45 1013.48 1011.92 1010.32 1009.86 1009.33 1009.04 1008.70 1009.14 1009.11 1008.69 1009.32 1008.56 1008.11 1007.36 1006.84 1006.11 1005.77 1005.73 1006.15 1007.14 1008.06 1008.79 1008.67 1008.53 1008.16 1007.84 1007.48 1007.16 1006.66 1006.34 1006.53 1006.42 1005.70 1004.74 1004.48 1004.18 1004.18 1004.04 1004.05 1003.95 1004.05 1004.25 1003.94 1003.99 1004.13 1003.98 1003.94 1003.71 1003.19 1003.23
1014.17 1013.71 1013.22 1012.67 1011.85 1011.45 1010.96 1010.34 1009.61 1009.75 1009.58 1009.91 1009.95 1009.93 1010.25 1009.87 1009.32 1008.94 1008.89 1008.92 1008.36 1008.93 1009.01 1009.42 1009.50 1009.55 1009.22 1008.90 1008.55 1007.90 1007.39 1006.93 1006.83 1006.41 1006.31 1006.79 1006.61 1005.90 1005.53 1005.01 1004.69 1004.40 1004.54 1004.76 1004.76 1004.77 1004.91 1005.04 1005.36 1005.37 1004.80 1004.40 1004.43 1004.16
1014.14 1014.03 1013.17 1012.14 1011.63 1011.35 1010.76 1010.46 1010.16 1009.86 1009.93 1010.01 1010.04 1010.46 1010.88 1010.87 1010.77 1010.56 1010.40 1009.86 1010.18 1010.85 1010.59 1009.86 1009.64 1009.44 1009.55 1009.49 1009.12 1008.69 1008.14 1007.23 1006.81 1006.64 1006.69 1006.11 1005.98 1005.59 1005.43 1005.42 1005.33 1005.38 1005.60 1005.84 1005.91 1005.75 1005.92 1006.20 1006.45 1005.98 1005.29 1005.34 1005.03 1004.77
1014.45 1014.33 1012.79 1011.86 1011.62 1011.59 1011.04 1010.23 1010.25 1010.20 1009.86 1010.09 1010.48 1010.80 1011.33 1011.53 1011.78 1011.57 1011.78 1012.39 1012.15 1011.50 1010.98 1010.63 1010.37 1010.24 1009.97 1009.94 1009.97 1009.89 1009.20 1008.37 1007.70 1007.65 1007.63 1006.93 1006.50 1006.25 1005.95 1005.72 1005.80 1006.09 1006.49 1006.83 1006.84 1006.79 1006.91 1007.07 1006.82 1006.43 1006.10 1006.12 1005.77 1005.62
1015.08 1013.86 1012.74 1011.86 1011.21 1011.11 1010.40 1009.91 1009.94 1010.01 1009.92 1010.04 1010.43 1010.95 1011.45 1011.86 1012.08 1012.71 1013.41 1013.34 1012.92 1011.86 1011.73 1011.59 1011.23 1010.68 1010.55 1010.53 1010.42 1010.64 1010.50 1009.56 1009.00 1008.68 1008.79 1008.21 1007.80 1007.48 1007.20 1007.10 1007.20 1007.68 1007.91 1008.00 1008.28 1008.22 1007.95 1007.62 1007.22 1006.68 1006.44 1006.33 1006.20 1006.32
1014.62 1013.73 1012.71 1012.05 1010.92 1010.50 1009.75 1009.40 1009.33 1009.33 1009.83 1009.76 1010.13 1010.80 1011.51 1011.88 1012.24 1013.63 1014.27 1014.26 1013.52 1013.11 1013.00 1012.60 1011.99 1011.55 1011.32 1011.18 1010.98 1011.03 1011.17 1010.74 1010.33 1009.70 1009.37 1008.75 1008.42 1008.49 1008.76 1008.81 1008.80 1009.57 1009.72 1009.47 1009.10 1008.65 1008.27 1008.12 1007.86 1007.54 1007.40 1007.65 1007.82 1007.55
1013.52 1012.36 1012.05 1011.05 1010.59 1010.37 1010.14 1009.86 1009.85 1009.89 1010.02 1010.25 1010.79 1010.91 1011.47 1012.50 1013.44 1014.95 1015.62 1015.22 1014.53 1014.41 1013.95 1013.34 1012.89 1012.56 1012.27 1012.05 1011.74 1011.55 1011.91 1011.95 1011.66 1011.16 1010.56 1009.81 1009.82 1010.22 1010.55 1010.49 1010.45 1010.86 1011.07 1010.39 1009.96 1009.74 1009.46 1009.26 1009.01 1008.95 1008.84 1008.74 1008.65 1008.48
1012.30 1011.51 1010.90 1010.98 1010.50 1010.13 1010.24 1010.13 1009.94 1010.26 1010.67 1011.05 1011.44 1011.33 1011.37 1013.09 1014.81 1016.09 1016.23 1015.28 1014.78 1014.57 1014.26 1014.02 1013.55 1012.97 1012.47 1012.39 1012.26 1012.35 1012.78 1012.82 1012.87 1012.63 1011.59 1010.87 1011.20 1011.81 1012.18 1012.09 1012.06 1012.55 1011.93 1011.36 1011.33 1011.00 1010.61 1010.41 1010.37 1010.26 1009.93 1009.51 1009.07 1008.83
1010.56 1010.56 1011.12 1010.87 1010.22 1010.71 1010.92 1010.54 1010.77 1010.81 1011.12 1011.68 1011.79 1011.98 1013.04 1014.26 1015.25 1015.50 1015.39 1015.01 1014.53 1014.28 1013.87 1013.67 1013.12 1013.18 1013.15 1013.07 1013.08 1013.14 1013.53 1013.87 1013.99 1013.83 1013.03 1012.39 1012.71 1013.20 1013.53 1013.23 1013.04 1013.05 1012.61 1012.46 1012.34 1011.94 1011.78 1011.78 1011.52 1011.04 1010.70 1010.31 1009.98 1010.07
1010.78 1010.98 1011.34 1010.79 1010.08 1010.42 1010.89 1011.23 1011.50 1011.56 1011.57 1011.23 1012.24 1013.16 1014.49 1015.31 1015.36 1015.18 1014.98 1014.64 1014.35 1013.90 1013.32 1012.97 1013.27 1013.72 1013.87 1013.82 1013.97 1014.18 1014.29 1014.79 1015.24 1015.09 1014.83 1014.38 1014.27 1014.38 1014.36 1014.04 1013.75 1013.46 1013.20 1012.84 1012.54 1012.61 1012.63 1012.31 1012.04 1011.69 1011.46 1011.32 1011.29 1011.35
1009.95 1010.78 1011.10 1010.22 1010.09 1010.88 1011.88 1011.79 1012.28 1012.53 1012.74 1013.18 1013.86 1014.46 1014.89 1015.07 1015.22 1015.10 1014.76 1013.98 1013.57 1013.28 1013.55 1013.78 1014.00 1014.52 1014.76 1014.74 1014.86 1015.13 1015.16 1015.63 1016.49 1016.83 1016.73 1016.12 1015.79 1015.63 1015.27 1014.88 1014.58 1014.22 1013.89 1013.39 1012.84 1012.55 1012.71 1012.55 1012.38 1012.31 1012.32 1012.22 1012.17 1012.11
1008.65 1008.68 1009.34 1009.62 1010.40 1010.87 1011.77 1012.22 1012.50 1012.98 1013.08 1013.37 1013.65 1014.19 1014.67 1015.46 1015.70 1015.20 1014.69 1014.37 1014.11 1013.97 1014.36 1014.53 1014.78 1015.34 1015.83 1015.83 1015.97 1015.98 1016.27 1016.39 1017.38 1017.88 1018.17 1017.55 1017.06 1016.75 1016.26 1015.68 1015.32 1014.88 1014.57 1014.13 1013.68 1013.41 1013.49 1013.31 1013.18 1013.19 1013.04 1012.96 1012.94 1012.73
1008.22 1008.33 1008.76 1009.36 1009.85 1010.76 1011.38 1011.58 1012.13 1012.60 1013.10 1013.32 1013.60 1014.23 1014.95 1015.61 1015.38 1015.18 1014.66 1014.48 1014.22 1014.27 1014.91 1014.83 1015.05 1015.40 1016.12 1016.51 1016.60 1016.72 1017.12 1017.02 1017.75 1018.32 1018.44 1018.27 1018.03 1017.72 1017.23 1016.51 1016.27 1015.80 1015.32 1014.74 1014.48 1014.26 1014.25 1014.09 1013.94 1013.81 1013.59 1013.33 1013.13 1012.93
1008.11 1008.25 1008.54 1008.71 1009.46 1009.78 1010.52 1011.35 1011.95 1012.20 1012.35 1012.81 1013.43 1013.92 1014.08 1014.63 1015.00 1014.85 1014.77 1014.71 1014.85 1015.05 1015.47 1015.60 1015.35 1015.77 1016.39 1016.82 1017.21 1017.18 1016.97 1017.71 1018.25 1018.60 1018.65 1018.60 1018.49 1018.33 1017.94 1017.47 1017.20 1016.58 1015.89 1015.26 1015.01 1014.85 1014.62 1014.45 1014.23 1014.07 1013.84 1013.58 1013.41 1013.06
Thickness
5448 5441 5435 5430 5426 5423 5419 5416 5414 5412 5410 5409 5408 5407 5407 5407 5406 5405 5410 5407 5404 5401 5425 5436 5446 5453 5460 5474 5479 5476 5494 5523 5542 5541 5544 5554 5569 5624 5644 5673 5680 5692 5701 5713 5728 5727 5726 5795 5794 5773 5784 5794 5803 5807
5444 5437 5432 5428 5423 5421 5418 5415 5413 5411 5409 5408 5407 5406 5405 5404 5404 5404 5405 5408 5406 5407 5424 5432 5441 5452 5463 5471 5471 5486 5490 5484 5512 5526 5543 5555 5577 5591 5622 5635 5676 5667 5700 5709 5727 5739 5755 5758 5755 5780 5791 5788 5795 5796
5445 5439 5434 5429 5424 5420 5417 5414 5412 5411 5409 5407 5406 5406 5406 5405 5405 5403 5407 5405 5406 5407 5427 5447 5461 5469 5473 5479 5480 5485 5499 5507 5512 5510 5516 5544 5568 5584 5600 5631 5653 5677 5670 5688 5718 5740 5757 5754 5759 5762 5775 5782 5788 5795
5447 5441 5435 5430 5425 5421 5417 5415 5414 5412 5410 5410 5411 5410 5409 5408 5407 5406 5407 5408 5405 5408 5418 5461 5479 5482 5490 5496 5495 5498 5503 5510 5510 5513 5519 5538 5561 5581 5586 5597 5609 5624 5641 5661 5696 5735 5737 5741 5750 5754 5761 5771 5773 5777
5447 5441 5435 5429 5426 5424 5421 5420 5419 5418 5417 5417 5417 5415 5413 5412 5411 5410 5416 5417 5413 5408 5427 5457 5468 5493 5505 5509 5512 5513 5513 5513 5506 5510 5508 5535 5555 5563 5588 5588 5608 5615 5622 5639 5671 5673 5670 5719 5731 5745 5744 5751 5756 5755
5449 5444 5439 5434 5430 5428 5427 5428 5426 5426 5425 5425 5425 5422 5419 5417 5416 5420 5422 5421 5420 5416 5421 5444 5492 5497 5495 5499 5520 5520 5519 5519 5521 5509 5510 5529 5550 5558 5568 5590 5601 5610 5619 5629 5630 5655 5664 5694 5711 5724 5727 5736 5743 5742
5450 5446 5442 5440 5436 5434 5435 5435 5436 5436 5437 5436 5435 5433 5431 5427 5427 5431 5434 5431 5427 5427 5427 5445 5472 5500 5509 5522 5531 5525 5528 5528 5527 5521 5521 5535 5547 5555 5580 5593 5597 5614 5622 5631 5634 5640 5630 5646 5671 5694 5710 5720 5722 5726
5454 5450 5448 5446 5445 5444 5444 5446 5447 5448 5449 5449 5447 5446 5444 5439 5439 5445 5447 5443 5440 5436 5433 5444 5466 5487 5511 5523 5527 5529 5522 5523 5532 5535 5533 5543 5556 5567 5579 5589 5596 5599 5610 5626 5623 5624 5627 5631 5653 5675 5686 5698 5698 5700
5461 5458 5456 5455 5453 5456 5454 5456 5458 5460 5463 5464 5459 5458 5457 5455 5460 5459 5454 5448 5443 5440 5446 5445 5468 5485 5511 5518 5528 5524 5527 5531 5537 5536 5540 5547 5557 5567 5577 5585 5586 5594 5603 5612 5625 5634 5632 5637 5645 5655 5665 5668 5668 5672
5471 5467 5465 5465 5464 5466 5467 5469 5470 5476 5481 5480 5478 5481 5481 5480 5472 5467 5463 5459 5453 5449 5445 5454 5462 5491 5516 5530 5539 5536 5536 5537 5537 5541 5545 5544 5556 5566 5577 5575 5577 5584 5596 5608 5618 5625 5635 5644 5648 5649 5639 5643 5644 5650
5479 5477 5476 5476 5477 5476 5479 5482 5484 5488 5498 5503 5499 5504 5498 5491 5487 5482 5488 5478 5474 5473 5476 5485 5505 5522 5521 5527 5544 5546 5547 5545 5540 5548 5548 5540 5549 5554 5566 5571 5577 5585 5594 5598 5607 5615 5624 5623 5626 5630 5633 5633 5635 5634
5488 5486 5487 5487 5487 5488 5491 5493 5494 5500 5505 5496 5492 5499 5504 5504 5500 5498 5498 5505 5507 5516 5520 5524 5530 5537 5530 5534 5537 5545 5548 5549 5549 5556 5550 5540 5544 5563 5563 5569 5578 5585 5592 5598 5605 5609 5613 5615 5619 5620 5625 5626 5635 5631
5497 5497 5496 5497 5498 5500 5502 5502 5503 5502 5506 5510 5511 5520 5520 5514 5515 5502 5503 5510 5521 5530 5542 5544 5542 5540 5544 5542 5545 5552 5554 5557 5559 5547 5530 5537 5551 5558 5566 5576 5583 5584 5584 5600 5605 5609 5609 5611 5612 5612 5615 5616 5627 5634
5503 5505 5506 5506 5506 5507 5510 5510 5510 5510 5515 5524 5524 5512 5524 5522 5517 5512 5521 5527 5543 5553 5561 5564 5561 5554 5559 5558 5564 5565 5562 5564 5548 5543 5529 5537 5552 5564 5575 5588 5594 5594 5595 5602 5606 5614 5613 5612 5611 5612 5613 5615 5620 5620
5510 5514 5515 5514 5514 5515 5517 5519 5517 5516 5526 5529 5530 5516 5522 5537 5552 5558 5546 5544 5555 5555 5567 5574 5580 5577 5579 5580 5578 5577 5564 5543 5538 5533 5542 5552 5557 5561 5578 5588 5592 5591 5593 5595 5602 5603 5603 5606 5609 5612 5611 5611 5611 5613
5515 5523 5522 5524 5522 5524 5528 5530 5529 5537 5538 5536 5537 5535 5543 5541 5555 5563 5570 5577 5584 5574 5582 5587 5579 5575 5574 5563 5558 5551 5552 5546 5547 5552 5554 5558 5567 5574 5581 5586 5587 5590 5594 5597 5598 5602 5602 5605 5605 5607 5611 5610 5609 5610
5520 5532 5530 5527 5528 5532 5539 5537 5551 5550 5547 5539 5537 5540 5542 5546 5550 5565 5570 5581 5591 5591 5582 5580 5559 5560 5572 5550 5544 5546 5540 5540 5548 5552 5558 5561 5565 5571 5577 5584 5586 5587 5587 5586 5591 5595 5596 5597 5604 5604 5601 5604 5603 5605
5532 5533 5529 5527 5527 5538 5552 5551 5552 5552 5543 5546 5541 5541 5541 5546 5545 5558 5575 5583 5584 5584 5584 5571 5566 5551 5543 5546 5545 5544 5547 5552 5556 5561 5564 5568 5571 5576 5578 5579 5581 5584 5584 5585 5587 5592 5587 5586 5594 5594 5598 5600 5600 5598
5530 5529 5529 5532 5527 5529 5551 5550 5550 5549 5549 5551 5544 5544 5549 5551 5552 5564 5567 5577 5578 5579 5578 5569 5554 5544 5542 5545 5547 5551 5554 5553 5549 5559 5566 5567 5572 5579 5581 5581 5579 5579 5580 5582 5583 5587 5584 5583 5586 5587 5588 5588 5590 5587
5539 5538 5537 5541 5538 5550 5553 5551 5558 5550 5547 5545 5545 5547 5538 5545 5549 5555 5557 5562 5564 5563 5557 5546 5540 5536 5539 5542 5547 5549 5553 5556 5558 5559 5557 5556 5564 5574 5575 5576 5575 5578 5577 5577 5576 5571 5577 5575 5574 5575 5576 5578 5581 5581
5551 5551 5551 5551 5558 5556 5554 5553 5555 5551 5552 5541 5544 5543 5536 5543 5547 5548 5545 5546 5548 5536 5536 5534 5534 5536 5541 5544 5546 5551 5555 5559 5555 5561 5559 5553 5552 5561 5562 5567 5569 5571 5567 5563 5562 5563 5563 5561 5557 5557 5562 5565 5564 5565
5558 5554 5557 5563 5562 5560 5560 5561 5558 5561 5555 5552 5553 5549 5539 5537 5539 5541 5544 5547 5540 5530 5534 5542 5543 5544 5540 5539 5542 5545 5548 5556 5560 5559 5553 5558 5558 5560 5559 5558 5559 5555 5553 5550 5548 5548 5546 5544 5541 5544 5550 5549 5551 5553
5559 5555 5569 5571 5564 5552 5554 5570 5559 5560 5557 5556 5553 5548 5542 5540 5538 5543 5534 5526 5527 5534 5538 5539 5539 5540 5539 5539 5536 5534 5538 5543 5548 5546 5544 5549 5552 5553 5553 5553 5551 5546 5541 5537 5537 5536 5533 5529 5530 5532 5534 5532 5534 5535
5559 5566 5569 5570 5572 5560 5574 5570 5572 5567 5567 5562 5556 5549 5547 5544 5544 5531 5521 5523 5524 5537 5534 5531 5532 5533 5533 5531 5529 5525 5524 5531 5533 5534 5530 5532 5533 5534 5535 5533 5529 5524 5523 5520 5514 5512 5514 5516 5517 5522 5522 5522 5522 5520
5564 5565 5570 5556 5581 5576 5577 5578 5578 5576 5565 5569 5564 5557 5551 5550 5545 5529 5521 5520 5524 5524 5522 5523 5526 5526 5524 5523 5523 5520 5517 5518 5518 5519 5521 5524 5525 5523 5517 5513 5510 5502 5499 5499 5501 5503 5504 5504 5503 5503 5502 5498 5495 5494
5563 5583 5567 5582 5581 5577 5576 5573 5572 5569 5569 5565 5559 5563 5558 5540 5535 5515 5507 5512 5514 5511 5512 5514 5514 5512 5511 5511 5510 5510 5505 5502 5501 5500 5502 5506 5504 5499 5493 5490 5488 5483 5476 5480 5481 5479 5479 5479 5478 5476 5474 5471 5467 5467
5574 5582 5590 5590 5588 5588 5579 5581 5581 5572 5562 5555 5552 5556 5559 5539 5518 5502 5501 5511 5511 5508 5508 5505 5505 5505 5506 5503 5501 5498 5491 5487 5482 5480 5484 5487 5480 5472 5465 5462 5461 5454 5455 5458 5455 5453 5455 5454 5450 5447 5447 5448 5448 5447
5597 5597 5577 5581 5587 5579 5571 5574 5567 5563 5561 5557 5556 5550 5538 5526 5515 5513 5510 5511 5511 5508 5507 5504 5506 5499 5493 5490 5486 5481 5475 5467 5462 5459 5461 5462 5455 5448 5440 5438 5436 5430 5431 5430 5429 5428 5427 5422 5419 5421 5420 5420 5419 5414
5585 5584 5579 5582 5591 5584 5576 5569 5563 5564 5565 5566 5550 5540 5525 5517 5516 5514 5511 5510 5508 5506 5503 5500 5492 5483 5476 5472 5465 5458 5455 5446 5438 5435 5432 5433 5431 5425 5421 5419 5417 5415 5413 5411 5408 5405 5404 5401 5400 5399 5396 5393 5388 5383
5597 5581 5576 5591 5588 5575 5567 5571 5561 5559 5555 5548 5538 5529 5524 5520 5516 5512 5508 5508 5503 5499 5490 5481 5474 5465 5457 5454 5449 5443 5439 5432 5420 5414 5409 5411 5410 5407 5406 5404 5402 5400 5398 5398 5398 5396 5389 5387 5384 5381 5376 5371 5366 5360
5619 5615 5602 5598 5584 5582 5574 5569 5565 5557 5553 5546 5542 5531 5522 5510 5503 5504 5501 5496 5491 5485 5476 5469 5462 5453 5444 5441 5435 5431 5424 5421 5409 5401 5394 5396 5396 5394 5394 5394 5391 5390 5388 5386 5385 5383 5377 5374 5370 5364 5360 5355 5348 5343
5619 5612 5604 5592 5590 5585 5579 5572 5563 5556 5548 5543 5538 5529 5517 5504 5501 5498 5497 5491 5486 5479 5468 5466 5458 5450 5440 5433 5428 5423 5413 5413 5403 5395 5390 5387 5385 5383 5382 5383 5379 5379 5377 5377 5374 5370 5365 5362 5358 5353 5350 5346 5342 5337
5617 5614 5609 5603 5593 5588 5582 5572 5562 5556 5553 5545 5537 5530 5524 5513 5500 5499 5495 5488 5479 5472 5464 5458 5456 5447 5437 5429 5422 5418 5415 5404 5395 5388 5384 5381 5376 5372 5373 5373 5369 5368 5368 5368 5364 5360 5357 5353 5351 5347 5344 5341 5336 5334